TimeEST,TemperatureF,Dew PointF,Humidity,Sea Level PressureIn,VisibilityMPH,Wind Direction,Wind SpeedMPH,Gust SpeedMPH,PrecipitationIn,Events,Conditions,WindDirDegrees,DateUTC
12:08 AM,35.6,35.6,100,30.37,1.8,Calm,Calm,-,N/A,,Clear,0,2012-12-01 05:08:00
12:18 AM,35.6,35.6,100,30.37,1.5,Calm,Calm,-,N/A,,Scattered Clouds,0,2012-12-01 05:18:00
12:24 AM,35.6,35.6,100,30.37,0.8,Calm,Calm,-,N/A,,Mist,0,2012-12-01 05:24:00
12:53 AM,33.1,33.1,100,30.36,0.2,Calm,Calm,-,N/A,Fog,Fog,0,2012-12-01 05:53:00
1:30 AM,33.8,33.8,100,30.36,0.5,Calm,Calm,-,N/A,Fog,Fog,0,2012-12-01 06:30:00
1:37 AM,33.8,33.8,100,30.36,0.2,Calm,Calm,-,N/A,Fog,Fog,0,2012-12-01 06:37:00
1:53 AM,33.1,33.1,100,30.36,0.2,Calm,Calm,-,N/A,Fog,Fog,0,2012-12-01 06:53:00
2:53 AM,32.0,32.0,100,30.37,0.2,Calm,Calm,-,N/A,Fog,Fog,0,2012-12-01 07:53:00
3:53 AM,32.0,32.0,100,30.37,0.2,NNW,3.5,-,N/A,Fog,Fog,340,2012-12-01 08:53:00
5:53 AM,32.0,32.0,100,30.37,0.2,Calm,Calm,-,N/A,Fog,Fog,0,2012-12-01 10:53:00
6:31 AM,33.8,33.8,100,30.39,1.2,Calm,Calm,-,N/A,,Mostly Cloudy,0,2012-12-01 11:31:00
6:35 AM,32.0,32.0,100,30.39,3.0,Calm,Calm,-,N/A,,Scattered Clouds,0,2012-12-01 11:35:00
6:45 AM,33.8,33.8,100,30.40,1.8,Calm,Calm,-,N/A,,Scattered Clouds,0,2012-12-01 11:45:00
6:49 AM,33.8,33.8,100,30.40,0.8,NNW,3.5,-,N/A,,Mist,330,2012-12-01 11:49:00
7:05 AM,32.0,32.0,100,30.40,0.2,Calm,Calm,-,N/A,Fog,Fog,0,2012-12-01 12:05:00
7:45 AM,33.8,33.8,100,30.41,1.0,Calm,Calm,-,N/A,,Mist,0,2012-12-01 12:45:00
7:53 AM,34.0,34.0,100,30.41,1.8,Calm,Calm,-,N/A,,Clear,0,2012-12-01 12:53:00
8:25 AM,42.8,41.0,93,30.42,2.5,Calm,Calm,-,N/A,,Clear,0,2012-12-01 13:25:00
8:42 AM,44.6,44.6,100,30.43,3.0,Calm,Calm,-,N/A,,Partly Cloudy,0,2012-12-01 13:42:00
8:53 AM,46.9,46.9,100,30.43,4.0,Calm,Calm,-,N/A,,Scattered Clouds,0,2012-12-01 13:53:00
10:53 AM,55.0,46.9,74,30.43,9.0,Variable,4.6,17.3,N/A,,Clear,0,2012-12-01 15:53:00
11:53 AM,55.9,48.9,77,30.39,10.0,North,-9999.0,-,N/A,,Clear,0,2012-12-01 16:53:00
12:53 PM,57.0,46.9,69,30.39,10.0,North,-9999.0,-,N/A,,Clear,0,2012-12-01 17:53:00
1:53 PM,55.9,46.9,72,30.38,10.0,ENE,6.9,-,N/A,,Clear,70,2012-12-01 18:53:00
2:53 PM,55.9,46.9,72,30.37,10.0,East,5.8,-,N/A,,Clear,90,2012-12-01 19:53:00
3:53 PM,53.1,46.9,80,30.37,10.0,East,4.6,-,N/A,,Clear,80,2012-12-01 20:53:00
4:53 PM,48.0,45.0,89,30.38,10.0,Calm,Calm,-,N/A,,Clear,0,2012-12-01 21:53:00
6:53 PM,37.9,37.9,100,30.41,6.0,Calm,Calm,-,N/A,,Clear,0,2012-12-01 23:53:00
7:53 PM,37.0,37.0,100,30.41,5.0,Calm,Calm,-,N/A,,Clear,0,2012-12-02 00:53:00
8:53 PM,44.1,44.1,100,30.42,7.0,NE,3.5,-,N/A,,Clear,50,2012-12-02 01:53:00
9:38 PM,41.0,41.0,100,30.41,2.5,ENE,3.5,-,N/A,,Clear,70,2012-12-02 02:38:00
9:48 PM,44.6,44.6,100,30.41,4.0,ENE,3.5,-,N/A,,Clear,70,2012-12-02 02:48:00
9:53 PM,45.0,45.0,100,30.41,5.0,ENE,3.5,-,N/A,,Clear,60,2012-12-02 02:53:00
10:10 PM,42.8,42.8,100,30.41,1.5,NE,3.5,-,N/A,,Clear,50,2012-12-02 03:10:00
10:38 PM,39.2,39.2,100,30.41,0.5,NNE,3.5,-,N/A,Fog,Fog,20,2012-12-02 03:38:00
10:53 PM,39.9,39.9,100,30.40,0.8,NNE,3.5,-,N/A,,Clear,30,2012-12-02 03:53:00
11:12 PM,41.0,41.0,100,30.40,0.2,North,4.6,-,N/A,Fog,Fog,350,2012-12-02 04:12:00
11:53 PM,45.0,45.0,100,30.40,0.2,Calm,Calm,-,N/A,Fog,Fog,0,2012-12-02 04:53:00